| time (UTC) | temp C | wind direction | speed KPH | gust KPH | rain 1hr cm | rain 24hr cm | rain mn cm | humidity % | barometer mb |
| 20260504130528 | 16 | 293 | 4.8 | 12.9 | 0.00 | 0.00 | 0.00 | 37 | 996.5 |
| 20260504110518 | 13 | 239 | 4.8 | 14.5 | 0.00 | 0.00 | 0.00 | 36 | 995.2 |
| 20260504100525 | 13 | 222 | 3.2 | 8.0 | 0.00 | 0.00 | 0.00 | 36 | 995.6 |
| 20260504081518 | 12 | 253 | 1.6 | 6.4 | 0.00 | 0.00 | 0.00 | 37 | 997.7 |
| 20260504080515 | 12 | 277 | 1.6 | 8.0 | 0.00 | 0.00 | 0.00 | 38 | 997.8 |
| 20260504050515 | 12 | 0.0 | 1.6 | 0.00 | 0.00 | 0.00 | 36 | 1001.3 | |
| 20260504045527 | 12 | 281 | 0.0 | 6.4 | 0.00 | 0.00 | 0.00 | 36 | 1001.5 |
| 20260504044523 | 12 | 255 | 1.6 | 6.4 | 0.00 | 0.00 | 0.00 | 37 | 1001.6 |
| 20260504043520 | 12 | 270 | 0.0 | 3.2 | 0.00 | 0.00 | 0.00 | 37 | 1001.8 |
| 20260504042516 | 12 | 270 | 0.0 | 3.2 | 0.00 | 0.00 | 0.00 | 38 | 1002.0 |
| 20260504041528 | 12 | 0.0 | 3.2 | 0.00 | 0.00 | 0.00 | 38 | 1002.1 | |
| 20260504040525 | 12 | 0.0 | 1.6 | 0.00 | 0.00 | 0.00 | 38 | 1002.4 | |
| 20260504035521 | 12 | 0.0 | 1.6 | 0.00 | 0.00 | 0.00 | 36 | 1002.8 | |
| 20260504034518 | 13 | 0.0 | 0.0 | 0.00 | 0.00 | 0.00 | 35 | 1003.0 | |
| 20260504033514 | 13 | 0.0 | 0.0 | 0.00 | 0.00 | 0.00 | 34 | 1003.1 | |
| 20260504032526 | 13 | 0.0 | 0.0 | 0.00 | 0.00 | 0.00 | 32 | 1003.3 | |
| 20260504031523 | 13 | 0.0 | 0.0 | 0.00 | 0.00 | 0.00 | 32 | 1003.4 | |
| 20260504030520 | 14 | 0.0 | 0.0 | 0.00 | 0.00 | 0.00 | 30 | 1003.5 | |
| 20260504025536 | 15 | 0.0 | 0.0 | 0.00 | 0.00 | 0.00 | 29 | 1003.6 | |
| 20260504024528 | 15 | 0.0 | 0.0 | 0.00 | 0.00 | 0.00 | 27 | 1003.7 | |
| 20260504023543 | 15 | 0.0 | 0.0 | 0.00 | 0.00 | 0.00 | 24 | 1003.8 | |
| 20260504022520 | 16 | 0.0 | 0.0 | 0.00 | 0.00 | 0.00 | 24 | 1003.9 | |
| 20260504021517 | 17 | 0.0 | 1.6 | 0.00 | 0.00 | 0.00 | 23 | 1004.0 | |
| 20260504020528 | 17 | 270 | 0.0 | 3.2 | 0.00 | 0.00 | 0.00 | 24 | 1004.0 |
| 20260504015525 | 17 | 270 | 0.0 | 3.2 | 0.00 | 0.00 | 0.00 | 25 | 1004.0 |
| 20260504014521 | 18 | 0.0 | 1.6 | 0.00 | 0.00 | 0.00 | 23 | 1004.0 | |
| 20260504013518 | 18 | 0.0 | 3.2 | 0.00 | 0.00 | 0.00 | 23 | 1004.3 | |
| 20260504012515 | 19 | 270 | 0.0 | 4.8 | 0.00 | 0.00 | 0.00 | 21 | 1004.4 |
| 20260504011527 | 20 | 251 | 0.0 | 3.2 | 0.00 | 0.00 | 0.00 | 22 | 1004.5 |
| 20260504010523 | 20 | 289 | 1.6 | 6.4 | 0.00 | 0.00 | 0.00 | 21 | 1004.6 |
| 20260504005520 | 20 | 280 | 3.2 | 8.0 | 0.00 | 0.00 | 0.00 | 20 | 1004.6 |
| 20260504004517 | 20 | 278 | 1.6 | 11.3 | 0.00 | 0.00 | 0.00 | 19 | 1004.6 |
| 20260504003528 | 21 | 301 | 3.2 | 14.5 | 0.00 | 0.00 | 0.00 | 20 | 1004.8 |
| 20260504002545 | 21 | 275 | 3.2 | 17.7 | 0.00 | 0.00 | 0.00 | 19 | 1004.8 |
| 20260504001522 | 21 | 332 | 3.2 | 11.3 | 0.00 | 0.00 | 0.00 | 19 | 1004.9 |
| 20260504000519 | 21 | 307 | 3.2 | 9.7 | 0.00 | 0.00 | 0.00 | 19 | 1005.0 |
| 20260503235515 | 21 | 292 | 3.2 | 12.9 | 0.00 | 0.00 | 0.00 | 18 | 1005.0 |
| 20260503234527 | 21 | 242 | 4.8 | 16.1 | 0.00 | 0.00 | 0.00 | 18 | 1005.1 |
| 20260503233523 | 21 | 266 | 8.0 | 20.9 | 0.00 | 0.00 | 0.00 | 19 | 1005.1 |
| 20260503232520 | 21 | 258 | 4.8 | 12.9 | 0.00 | 0.00 | 0.00 | 19 | 1005.1 |
| 20260503231516 | 21 | 328 | 4.8 | 11.3 | 0.00 | 0.00 | 0.00 | 17 | 1005.3 |
| 20260503230527 | 21 | 276 | 3.2 | 12.9 | 0.00 | 0.00 | 0.00 | 18 | 1005.3 |
| 20260503225524 | 21 | 275 | 4.8 | 12.9 | 0.00 | 0.00 | 0.00 | 17 | 1005.5 |
| 20260503224521 | 21 | 304 | 9.7 | 17.7 | 0.00 | 0.00 | 0.00 | 18 | 1005.6 |
| 20260503223517 | 21 | 299 | 6.4 | 17.7 | 0.00 | 0.00 | 0.00 | 17 | 1005.5 |
| 20260503222529 | 21 | 247 | 3.2 | 11.3 | 0.00 | 0.00 | 0.00 | 17 | 1005.6 |
| 20260503221526 | 21 | 295 | 4.8 | 16.1 | 0.00 | 0.00 | 0.00 | 18 | 1005.7 |
| 20260503220523 | 22 | 331 | 6.4 | 16.1 | 0.00 | 0.00 | 0.00 | 18 | 1005.7 |
| 20260503215539 | 22 | 308 | 6.4 | 17.7 | 0.00 | 0.00 | 0.00 | 18 | 1005.9 |
| 20260503214516 | 22 | 299 | 6.4 | 19.3 | 0.00 | 0.00 | 0.00 | 17 | 1005.9 |
| 20260503213528 | 22 | 278 | 4.8 | 12.9 | 0.00 | 0.00 | 0.00 | 17 | 1005.9 |
| 20260503212524 | 21 | 308 | 4.8 | 12.9 | 0.00 | 0.00 | 0.00 | 19 | 1005.9 |
| 20260503211521 | 21 | 330 | 8.0 | 17.7 | 0.00 | 0.00 | 0.00 | 18 | 1006.0 |
| 20260503210517 | 22 | 299 | 6.4 | 16.1 | 0.00 | 0.00 | 0.00 | 18 | 1006.2 |
| 20260503205529 | 22 | 291 | 3.2 | 8.0 | 0.00 | 0.00 | 0.00 | 18 | 1006.2 |
| 20260503204526 | 22 | 298 | 4.8 | 16.1 | 0.00 | 0.00 | 0.00 | 18 | 1006.2 |
| 20260503203523 | 21 | 300 | 3.2 | 14.5 | 0.00 | 0.00 | 0.00 | 18 | 1006.3 |
| 20260503202519 | 22 | 315 | 8.0 | 19.3 | 0.00 | 0.00 | 0.00 | 18 | 1006.3 |
| 20260503201516 | 21 | 337 | 6.4 | 14.5 | 0.00 | 0.00 | 0.00 | 16 | 1006.5 |
| 20260503200527 | 21 | 304 | 6.4 | 16.1 | 0.00 | 0.00 | 0.00 | 18 | 1006.6 |
| 20260503195524 | 21 | 298 | 4.8 | 12.9 | 0.00 | 0.00 | 0.00 | 18 | 1006.7 |
| 20260503194521 | 21 | 336 | 6.4 | 16.1 | 0.00 | 0.00 | 0.00 | 17 | 1006.8 |
| 20260503193517 | 21 | 297 | 8.0 | 22.5 | 0.00 | 0.00 | 0.00 | 18 | 1006.9 |
| 20260503192529 | 21 | 335 | 9.7 | 24.1 | 0.00 | 0.00 | 0.00 | 18 | 1007.0 |
| 20260503191525 | 21 | 343 | 8.0 | 14.5 | 0.00 | 0.00 | 0.00 | 19 | 1007.0 |
| 20260503190521 | 21 | 326 | 6.4 | 17.7 | 0.00 | 0.00 | 0.00 | 19 | 1006.9 |
| 20260503185518 | 21 | 296 | 8.0 | 19.3 | 0.00 | 0.00 | 0.00 | 19 | 1007.0 |
| 20260503184515 | 21 | 314 | 9.7 | 24.1 | 0.00 | 0.00 | 0.00 | 19 | 1007.2 |
| 20260503183527 | 21 | 340 | 6.4 | 20.9 | 0.00 | 0.00 | 0.00 | 20 | 1007.1 |
| 20260503182521 | 21 | 301 | 9.7 | 27.4 | 0.00 | 0.00 | 0.00 | 21 | 1007.2 |
| 20260503181538 | 21 | 332 | 8.0 | 17.7 | 0.00 | 0.00 | 0.00 | 22 | 1007.2 |
| 20260503180529 | 21 | 327 | 6.4 | 20.9 | 0.00 | 0.00 | 0.00 | 23 | 1007.2 |
| 20260503175525 | 21 | 324 | 11.3 | 24.1 | 0.00 | 0.00 | 0.00 | 22 | 1007.3 |
| 20260503174523 | 21 | 312 | 9.7 | 19.3 | 0.00 | 0.00 | 0.00 | 23 | 1007.3 |
| 20260503173519 | 21 | 262 | 4.8 | 9.7 | 0.00 | 0.00 | 0.00 | 23 | 1007.3 |
| 20260503172516 | 21 | 298 | 6.4 | 17.7 | 0.00 | 0.00 | 0.00 | 27 | 1007.2 |
| 20260503171528 | 20 | 299 | 4.8 | 16.1 | 0.00 | 0.00 | 0.00 | 27 | 1007.3 |
| 20260503170524 | 20 | 343 | 9.7 | 17.7 | 0.00 | 0.00 | 0.00 | 26 | 1007.5 |
| 20260503150549 | 17 | 327 | 8.0 | 22.5 | 0.00 | 0.00 | 0.00 | 31 | 1006.7 |